Location: Nickerson Gardens
(33.9320°N, 118.2484°W)
Time: 06:01:56
(UTC+00:00)

N. Korean satellite - Pass Details

Date: 24 January 2021
Orbit: 451 x 502 km, 97.2° (Epoch: 05 March)

Event Time Altitude Azimuth Distance (km) Brightness Sun altitude
Rises 01:35:07 0° 208° (SSW) 2,585 11.1 -4.7°
Reaches altitude 10° 01:38:05 10° 235° (SW) 1,703 10.9 -5.2°
Maximum altitude 01:39:59 14° 266° (W) 1,488 10.5 -5.6°
Drops below altitude 10° 01:41:53 10° 298° (WNW) 1,701 10.0 -6.0°
Sets 01:44:51 0° 325° (NW) 2,580 10.5 -6.6°
